Regional Weather Roundup
Issued by NWS Wakefield, VA

Home | Current Version | Previous Version | Graphics & Text | Print | Product List | Glossary On
Versions: 1 2 3 4 5 6 7 8 9 10 11 12 13 14 15 16 17 18 19 20 21 22 23 24 25 26 27 28 29 30 31 32 33 34 35 36 37 38 39 40 41 42 43 44 45 46 47 48 49 50
000
ASUS41 KAKQ 182310
RWRAKQ

REGIONAL WEATHER ROUNDUP
NATIONAL WEATHER SERVICE WAKEFIELD VA
600 PM EST THU DEC 18 2014

Note: "fair" indicates few or no clouds below 12,000 feet with no
significant weather and/or obstructions to visibility. * = Denotes
station may not report precipitation (e.g., rain,snow,etc.),
thunder or fog.

VAZ042-051-052>054-056-190000-
NORTHERN VIRGINIA

CITY           SKY/WX    TMP DP  RH WIND       PRES   REMARKS
WASH NATIONAL  MOCLDY    40  22  48 NW13      30.13R
DULLES         MOCLDY    34  22  61 W10       30.11S
FORT BELVOIR   CLOUDY    37  22  53 NW7       30.12R
QUANTICO       MOCLDY    38  22  52 N8        30.13R
FREDERICKSBRG* MOCLDY    39  25  56 N6        30.11S
STAFFORD*      MOCLDY    37  22  54 NW7       30.15S
WARRENTON      MOCLDY    37  28  71 N7        30.10F
CULPEPER*      CLOUDY    37  25  60 N3        30.11F
MANASSAS*      CLEAR     36  25  64 N6        30.12R
LEESBURG*      PTCLDY    36  27  69 NW6       30.12S
WINCHESTER     CLOUDY    34  19  55 NW10      30.10S
FRONT ROYAL*   CLOUDY    32  21  64 NW7       30.10R
LURAY*         CLOUDY    36  27  69 NE6       30.08R
$$

VAZ048-049-060>072-079>083-190000-
CENTRAL AND SOUTH CENTRAL VIRGINIA

CITY           SKY/WX    TMP DP  RH WIND       PRES   REMARKS
RICHMOND       MOCLDY    39  23  52 N3        30.09S
CHESTERFIELD*  PTCLDY    37  16  41 N3        30.10S
PETERSBURG*    PTCLDY    36  29  74 CALM      30.10R
HANOVER        CLEAR     32  24  72 CALM      30.11R
TAPPAHANNOCK*  CLEAR     35  22  59 CALM      30.12R
QUINTON*       PTCLDY    36  25  64 CALM      30.10R
CHARLOTTSVILLE CLOUDY    41  21  44 CALM      30.07S
GORDONSVILLE*  CLOUDY    37  24  59 NE6       30.09R
ORANGE*        CLOUDY    37  27  65 N6        30.11R
LOUISA*        MOCLDY    37  27  65 CALM      30.08R
BUMPASS*       CLOUDY    36  30  79 CALM      30.10S
FARMVILLE*     MOCLDY    42  24  48 CALM      30.08R
CREWE*         CLEAR     41  23  48 CALM      30.07S
FORT PICKETT*  CLEAR     38  27  65 CALM      30.08R
CHASE CITY*    CLOUDY    43  28  56 CALM      30.09R
CLARKSVILLE*   CLOUDY    43  28  56 CALM      30.09R
SOUTH HILL*    CLOUDY    36  31  82 CALM      30.14R
LAWRENCEVILLE* CLEAR     36  31  82 CALM      30.08R
EMPORIA*       CLEAR     32  32 100 CALM      30.11R
$$

VAZ088>098-190000-
SOUTHEAST VIRGINIA

CITY           SKY/WX    TMP DP  RH WIND       PRES   REMARKS
NORFOLK        PTCLDY    41  29  62 CALM      30.08S
VIRGINIA BEACH PTCLDY    39  29  67 CALM      30.08S
NORFOLK NAVAL  MOCLDY    45  24  43 NW3       30.10S
WEST POINT*    CLEAR     39  25  56 NW3       30.12R
SALUDA*        FAIR      38  25  60 N7        30.10R
NEWPORT NEWS   CLEAR     41  25  53 N5        30.09S
LANGLEY AFB    CLEAR     39  24  55 NW3       30.10S
FORT EUSTIS    CLEAR     40  24  52 N3        30.08S
WILLIAMSBURG*  CLEAR     41  27  56 N5        30.11R
HR EXEC AP*    PTCLDY    30  25  80 CALM      30.11S
FRANKLIN*      PTCLDY    36  30  80 CALM      30.10R
WAKEFIELD      CLEAR     35  29  78 CALM      30.10R
$$

VAZ020-022-025-037-045-190000-
WEST CENTRAL AND SOUTHWEST VIRGINIA

CITY           SKY/WX    TMP DP  RH WIND       PRES   REMARKS
STAUNTON*      CLOUDY    38  25  59 CALM      30.09R
WAYNESBORO*    CLOUDY    37  22  56 CALM      30.06R
HOT SPRINGS VA CLOUDY    30  21  69 W16       29.96R WCI  19
LYNCHBURG      CLOUDY    38  24  57 SW5       30.09R
DANVILLE       CLOUDY    43  26  51 CALM      30.10R
SOUTH BOSTON*  CLOUDY    42  24  49 CALM      30.10S
MARTINSVILLE   CLOUDY    41  30  66 CALM      30.11S
ROANOKE        CLOUDY    42  23  46 CALM      30.08S
BLACKSBURG     CLOUDY    38  19  46 NW12G18   30.09S
DUBLIN*        CLOUDY    41  22  46 W9        30.09R
MARION*        CLOUDY    38  22  53 W9        30.11R
HILLSVILLE*    CLOUDY    38  15  40 W6        30.06R
RICHLANDS*     CLOUDY    35  22  59 NW5       30.10S
WISE*          CLOUDY    34  23  64 NW3       30.11S
ABINGDON*      CLOUDY    40  24  52 W3        30.12S
$$

MDZ021>025-VAZ099-100-190000-
SOUTHERN MARYLAND AND THE DELMARVA PENINSULA

CITY           SKY/WX    TMP DP  RH WIND       PRES   REMARKS
PATUXENT RIVER MOCLDY    38  23  55 N10       30.11R
BAY BRIDGE APT   N/A     36  23  60 NW10      30.11R
LEONARDTOWN    PTCLDY    36  23  60 CALM      30.12R
DOVER          CLOUDY    37  24  59 W10       30.05R
GEORGETOWN     MOCLDY    36  23  59 W5        30.09R
EASTON         MOCLDY    37  27  65 NW9       30.13R
CAMBRIDGE      PTCLDY    37  27  65 NW8       30.09R
SALISBURY      CLEAR     36  24  62 NW6       30.08R
OCEAN CITY     CLEAR     35  23  61 NW5       30.09R
WALLOPS ISLAND CLEAR     34  24  67 NW5       30.09R
ACCOMACK*      PTCLDY    36  27  69 CALM      30.09S
$$

NCZ012>017-030>032-190000-
NORTH CENTRAL AND EASTERN NORTH CAROLINA

CITY           SKY/WX    TMP DP  RH WIND       PRES   REMARKS
ROANOKE RAPIDS CLEAR     37  30  75 CALM      30.10R
RALEIGH        MOCLDY    43  26  51 CALM      30.10R
ELIZABETH CITY MOCLDY    42  30  62 SW5       30.10R
AHOSKIE*       PTCLDY    38  32  77 CALM      30.10S
EDENTON*       CLOUDY    42  35  74 N3        30.10R
CURRITUCK*     MOCLDY    41  31  68 CALM      30.10S
KILL DEVIL HLS CLOUDY    42  33  70 CALM      30.08S
MANTEO         CLOUDY    43  33  67 CALM      30.09S
CAPE HATTERAS  PTCLDY    40  35  83 CALM      30.10R
TARBORO*       CLOUDY    45  36  70 CALM      30.11R
GOLDSBORO      MOCLDY    44  37  73 CALM      30.09R
WASHINGTON     PTCLDY    41  33  71 CALM      30.10R
GREENVILLE     MOCLDY    45  32  61 CALM      30.12R
NEW BERN       CLEAR     43  33  68 CALM      30.10R
WILMINGTON     CLEAR     45  36  70 NE3       30.09S
$$

VAZ048-190000-
ELSEWHERE

CITY           SKY/WX    TMP DP  RH WIND       PRES   REMARKS
HARRISBURG PA  CLOUDY    35  23  61 NW14      30.07S
BALTIMORE      MOCLDY    35  22  58 NW5       30.09R
ANNAPOLIS      PTCLDY    37  23  56 W6        30.11R
ANDREWS AFB    NOT AVBL
PHILADELPHIA   MOCLDY    38  23  55 W12       30.05S
HENDERSON NC   CLOUDY    43  24  47 CALM      30.09R
GREENSBORO     CLOUDY    46  20  35 CALM      30.08S
ROCKY MOUNT    CLOUDY    43  34  70 CALM      30.10R
$$

VAZ100-190000-
MARINE

STATION/POSITION TIME  TEMP    WIND        PRES    WAVE   SWELL
                       AIR SEA DIR/SP/G            HT/PER HT/PER
                 (UTC) (F)     (DEG/KT/KT) (MB)    (FT/S) (FT/S)
CAPE MAY NJ      2300   39 43  280/  5/ 17 1017.0R
LEWES DE         2300   37 43  280/ 10/ 12 1017.8R
15NM E FENWICK I 2300   39 47              1017.4R   3/ 5
OCEAN-CITY-INLET 2300   38 46  320/  8/ 11 1017.9S
WACHAPREAGUE VA  2300   36 45   CALM  /  3 1018.8S
THOMAS POINT MD  2300   37 42  290/ 11/ 12 1020.7R
GOOSES REEF MD   2300   38     VRB 12/ 14  1018.5R
COVE POINT MD    2300   37     330/  8/ 12 1019.4R
SOLOMONS ISLAND  2300      44                N/A
BISHOPS HEAD MD  2300   36 41  340/  5/  5 1018.4S
PINEY POINT MD   2300           10/  9/ 10   N/A
POTOMAC MD       2300   40     350/  8/ 10 1018.4R
CAMBRIDGE MD     2300   38 41  330/ 10/ 12 1018.8R
LEWISETTA VA     2300   39 43  330/  5/  8 1019.2R
RAPPAHANNOCK LGT 2300          340/ 14/ 16 1019.1F
STINGRAY PT      2300   40     350/ 10/ 12 1019.4S
YORK RVR RNG VA  2300   43     330/  7/  8 1018.4R
YORKTOWN VA      2300   42 46  340/  7/  8 1018.7R
JAMESTOWN VA     2300   41      30/  4/  6   N/A
DOMINION TERM VA 2300   44     360/  2/  4 1018.7S
KIPTOPEKE VA     2300      50   50/  5/  6   N/A
CHES BAY BRIDGE  2300   42 46   10/  5/  6 1018.3R
CAPE HENRY VA    2300   41     350/  3/  5 1017.6R
CHESAPEAKE LGHT  2200   42     330/  7/  8 1019.3S
WILLOUBY STN VA  2300   44     330/  3/  4 1019.0F
S CRANEY ISL VA  2300          260/  2/  2 1018.7S
CAPE HENRY BUOY  2200      49                N/A     3/ 5
1ST LANDING BUOY 2300   43     360/  6/  8 1018.4R
CAPE CHARLES BUO 2300      48                N/A     2/ 5   2/ 5
64NM E OF VA BCH 2300   44 55  320/ 14/ 17 1018.1S   4/ 6   2/11
DUCK PIER NC     2300   43 48   30/  2/  3 1018.0S
44100 DUCK FRF   2300      52                N/A     4/ 6
44056 DUCK FRF   2300      48                N/A     3/ 6
OREGON INLET NC  2300   43 51  330/  1/  2 1019.1R
HATTERAS NC      2300   45 54   60/  2/  2 1019.2F
DIAMOND SHLS NC  2300   47                 1019.2R   3/ 7
CAPE LOOKOUT NC  2200   48      60/  6/  7 1018.5F
$$


USA.gov is the U.S. government's official web portal to all federal, state and local government web resources and services.